Le nostre stazioni meteo in Italia

Pubblicità
Il mio iltempo24.it
Decimomannu, Italia (16546): Temperatura & dewpoint: 14.08.2017 05:00:00 - 20.08.2017 05:00:00 (CEST)Decimomannu, Italia (16546): velocità del vento: 14.08.2017 05:00:00 - 20.08.2017 05:00:00 (CEST)Decimomannu, Italia (16546): direzione del vento: 14.08.2017 05:00:00 - 20.08.2017 05:00:00 (CEST)Decimomannu, Italia (16546): reduced air pressure: 14.08.2017 05:00:00 - 20.08.2017 05:00:00 (CEST)Decimomannu, Italia (16546): visibility: 14.08.2017 05:00:00 - 20.08.2017 05:00:00 (CEST)
Data & Tempo tt [°C] td [°C] ff [km/h] ff [kn] dd ppp [hPa] vv [km]
20.08.2017 05:00:00 23,8 20,1 16 9 NNO 1014,7 20
20.08.2017 04:00:00 24,0 20,0 18 10 NNO - 10
20.08.2017 03:00:00 25,0 22,0 26 14 NNO - 10
20.08.2017 02:00:00 24,6 21,5 28 15 NNO 1015,2 10
20.08.2017 01:00:00 25,0 23,0 18 10 NNO - 10
20.08.2017 00:00:00 27,0 20,0 13 7 N - 10
19.08.2017 23:00:00 28,0 19,0 22 12 NNO 1014,7 20
19.08.2017 22:00:00 28,0 20,0 22 12 NO - 10
19.08.2017 21:00:00 29,0 21,0 24 13 NNO - 10
19.08.2017 20:00:00 29,6 22,3 28 15 NNO 1012,9 20
19.08.2017 19:00:00 31,0 23,0 31 17 NNO - 10
19.08.2017 18:00:00 32,0 20,0 35 19 NO - 10
19.08.2017 17:00:00 34,6 16,0 29 16 NNO 1013,5 30
19.08.2017 16:00:00 37,0 19,0 26 14 NO - 10
19.08.2017 15:00:00 37,0 18,0 22 12 NO - 10
19.08.2017 14:00:00 36,2 17,8 15 8 NNO 1014,0 30
19.08.2017 13:00:00 36,0 18,0 13 7 NO - 10
19.08.2017 12:00:00 33,0 20,0 13 7 NNO - 10
19.08.2017 11:00:00 30,6 20,5 16 9 NNO 1015,1 20
19.08.2017 10:00:00 28,0 21,0 16 9 NO - 10
19.08.2017 09:00:00 25,0 22,0 9 5 NNO - 10
19.08.2017 08:00:00 21,6 19,9 8 4 NNO 1015,0 20
19.08.2017 07:00:00 20,0 19,0 5 3 NO - 10
19.08.2017 06:00:00 21,0 20,0 4 2 NNE - 10
19.08.2017 05:00:00 21,8 21,0 4 2 NNE 1014,5 15
19.08.2017 04:00:00 22,0 21,0 4 2 NNE - 10
19.08.2017 03:00:00 23,0 21,0 4 2 N - 10
19.08.2017 02:00:00 23,8 21,5 5 3 N 1014,7 15
19.08.2017 01:00:00 24,0 21,0 4 2 N - 10
19.08.2017 00:00:00 25,0 21,0 5 3 ENE - 10
18.08.2017 23:00:00 26,0 21,4 5 3 NO 1015,2 15
18.08.2017 22:00:00 27,0 23,0 0 0 N - 10
18.08.2017 21:00:00 28,0 23,0 2 1 SSE - 10
18.08.2017 20:00:00 30,0 25,1 5 3 SE 1014,1 20
18.08.2017 19:00:00 31,0 25,0 16 9 SSE - 10
18.08.2017 18:00:00 32,0 20,0 18 10 SSE - 10
18.08.2017 17:00:00 33,2 22,0 22 12 SSE 1014,2 20
18.08.2017 16:00:00 29,0 16,0 24 13 SE - 10
18.08.2017 15:00:00 35,0 20,0 26 14 SE - 10
18.08.2017 14:00:00 35,2 18,7 43 23 SSE 1015,0 20
18.08.2017 13:00:00 36,0 19,0 16 9 SSE - 10
18.08.2017 12:00:00 34,0 21,0 11 6 SSE - 10
18.08.2017 11:00:00 32,6 20,8 8 4 SSO 1015,8 20
18.08.2017 10:00:00 29,0 22,0 5 3 O - 10
18.08.2017 09:00:00 25,0 21,0 8 4 N - 10
18.08.2017 08:00:00 21,8 19,2 4 2 N 1015,8 15
18.08.2017 07:00:00 21,0 20,0 4 2 N - 10
18.08.2017 06:00:00 22,0 21,0 4 2 NNO - 10
18.08.2017 05:00:00 22,8 21,4 8 4 N 1015,3 20
18.08.2017 04:00:00 23,0 22,0 11 6 N - 10
18.08.2017 03:00:00 23,0 22,0 5 3 N - 10
18.08.2017 02:00:00 24,0 22,3 8 4 O 1015,8 20
18.08.2017 01:00:00 24,0 22,0 8 4 NO - 10
18.08.2017 00:00:00 25,0 22,0 8 4 NO - 10
17.08.2017 23:00:00 26,0 22,7 15 8 N 1015,8 20
17.08.2017 22:00:00 27,0 20,0 15 8 N - 10
17.08.2017 21:00:00 29,0 19,0 5 3 N - 10
17.08.2017 20:00:00 31,8 18,8 9 5 NNO 1014,9 30
17.08.2017 19:00:00 33,0 19,0 11 6 SE - 10
17.08.2017 18:00:00 34,0 19,0 15 8 ESE - 10
17.08.2017 17:00:00 34,0 18,5 18 10 SSE 1015,5 20
17.08.2017 16:00:00 34,0 24,0 26 14 SE - 10
17.08.2017 15:00:00 35,0 24,0 28 15 SE - 10
17.08.2017 14:00:00 36,0 19,9 21 11 SSE 1015,9 20
17.08.2017 13:00:00 38,0 15,0 8 4 O - 10
17.08.2017 12:00:00 36,0 17,0 8 4 NNO - 10
17.08.2017 11:00:00 32,0 20,0 9 5 NNO 1016,2 20
17.08.2017 10:00:00 29,0 21,0 8 4 NO - 10
17.08.2017 09:00:00 26,0 20,0 11 6 NO - 10
17.08.2017 08:00:00 23,8 21,1 4 2 ONO 1015,5 20
17.08.2017 07:00:00 22,0 19,0 4 2 N - 10
17.08.2017 06:00:00 23,0 19,0 5 3 N - 10
17.08.2017 05:00:00 22,8 18,5 2 1 N 1016,2 16
17.08.2017 04:00:00 - - - - - - -
17.08.2017 03:00:00 22,0 19,0 5 3 NNO - 10
17.08.2017 02:00:00 23,0 19,4 2 1 N 1016,5 20
17.08.2017 01:00:00 24,0 19,0 2 1 N - 10
17.08.2017 00:00:00 25,0 20,0 4 2 NNO - 10
16.08.2017 23:00:00 24,4 21,1 2 1 NNO 1016,9 18
16.08.2017 22:00:00 25,0 21,0 5 3 N - 10
16.08.2017 21:00:00 27,0 22,0 4 2 E - 10
16.08.2017 20:00:00 28,8 20,0 5 3 E 1016,1 25
16.08.2017 19:00:00 30,0 22,0 21 11 SE - 10
16.08.2017 18:00:00 32,0 22,0 22 12 SE - 10
16.08.2017 17:00:00 32,4 21,9 24 13 SSE 1015,9 30
16.08.2017 16:00:00 33,0 22,0 26 14 SSE - 10
16.08.2017 15:00:00 33,0 18,0 22 12 SSE - 10
16.08.2017 14:00:00 34,4 16,3 21 11 SSE 1016,9 30
16.08.2017 13:00:00 34,0 18,0 15 8 SSE - 10
16.08.2017 12:00:00 33,0 15,0 13 7 SE - 10
16.08.2017 11:00:00 32,2 16,1 8 4 S 1018,0 30
16.08.2017 10:00:00 28,0 16,0 5 3 E - 10
16.08.2017 09:00:00 24,0 17,0 4 2 NE - 10
16.08.2017 08:00:00 21,0 17,0 4 2 N 1018,1 30
16.08.2017 07:00:00 19,0 17,0 5 3 NO - 10
16.08.2017 06:00:00 20,0 18,0 8 4 O - 10
16.08.2017 05:00:00 20,2 18,5 8 4 N 1017,6 10
16.08.2017 04:00:00 21,0 20,0 5 3 ONO - 10
16.08.2017 03:00:00 22,0 21,0 4 2 NNE - 10
16.08.2017 02:00:00 22,4 21,4 9 5 ENE 1018,8 20
16.08.2017 01:00:00 23,0 22,0 9 5 ENE - 10
16.08.2017 00:00:00 24,0 23,0 8 4 ENE - 10
15.08.2017 23:00:00 25,0 23,2 9 5 E 1018,7 10
15.08.2017 22:00:00 26,0 24,0 5 3 E - 10
15.08.2017 21:00:00 27,0 24,0 13 7 SE - 10
15.08.2017 20:00:00 28,6 24,0 18 10 SE 1017,7 20
15.08.2017 19:00:00 30,0 22,0 22 12 SE - 10
15.08.2017 18:00:00 32,0 21,0 28 15 SSE - 10
15.08.2017 17:00:00 32,4 21,3 26 14 SE 1017,7 25
15.08.2017 16:00:00 33,0 21,0 26 14 SSE - 10
15.08.2017 15:00:00 34,0 19,0 24 13 SSE - 10
15.08.2017 14:00:00 34,0 20,4 24 13 SSE 1018,7 25
15.08.2017 13:00:00 33,0 19,0 21 11 S - 10
15.08.2017 12:00:00 33,0 20,0 15 8 S - 10
15.08.2017 11:00:00 31,0 20,0 15 8 SSE 1020,0 25
15.08.2017 10:00:00 28,0 18,0 8 4 SO - 10
15.08.2017 09:00:00 27,0 16,0 8 4 OSO - 10
15.08.2017 08:00:00 24,0 16,8 11 6 NE 1019,1 25
15.08.2017 07:00:00 22,0 18,0 11 6 NE - 10
15.08.2017 06:00:00 22,0 19,0 11 6 NE - 10
15.08.2017 05:00:00 22,8 20,1 9 5 NE 1018,5 20
15.08.2017 04:00:00 23,0 20,0 9 5 NE - 10
15.08.2017 03:00:00 23,0 21,0 4 2 NE - 10
15.08.2017 02:00:00 23,2 21,8 9 5 ENE 1018,3 20
15.08.2017 01:00:00 23,0 22,0 4 2 E - 10
15.08.2017 00:00:00 24,0 22,0 8 4 ENE - 10
14.08.2017 23:00:00 25,0 23,2 8 4 NNE 1018,9 15
14.08.2017 22:00:00 25,0 23,0 2 1 SSE - 10
14.08.2017 21:00:00 26,0 23,0 9 5 SE - 10
14.08.2017 20:00:00 27,6 23,4 15 8 SE 1018,0 20
14.08.2017 19:00:00 29,0 22,0 21 11 SE - 10
14.08.2017 18:00:00 30,0 20,0 22 12 SSE - 10
14.08.2017 17:00:00 32,2 16,1 24 13 SSE 1017,7 30
14.08.2017 16:00:00 33,0 16,0 28 15 SE - 10
14.08.2017 15:00:00 32,0 19,0 26 14 SSE - 10
14.08.2017 14:00:00 32,2 19,8 22 12 SSE 1018,1 30
14.08.2017 13:00:00 31,0 20,0 22 12 SSE - 10
14.08.2017 12:00:00 32,0 16,0 22 12 SSE - 10
14.08.2017 11:00:00 30,8 15,7 18 10 SSE 1018,4 30
14.08.2017 10:00:00 27,0 20,0 8 4 SSE - 10
14.08.2017 09:00:00 23,0 18,0 4 2 NNE - 10
14.08.2017 08:00:00 19,0 16,6 5 3 N 1018,3 20
14.08.2017 07:00:00 19,0 19,0 5 3 N - 10
14.08.2017 06:00:00 18,0 17,0 4 2 NNO - 10
14.08.2017 05:00:00 19,8 18,5 9 5 NNO 1017,9 15

tt = Temperatura
td = dewpoint
ff = velocità del vento
dd = direzione del vento
ppp = reduced air pressure
vv = visibility

Stazioni seguenti

WeatherPro
AMSI
MeteoEarth